Time,TemperatureF,DewpointF,PressureIn,WindDirection,WindDirectionDegrees,WindSpeedMPH,WindSpeedGustMPH,Humidity,HourlyPrecipIn,Conditions,Clouds,dailyrainin,SoftwareType,DateUTC
2013-09-22 00:02:00,76.8,75.3,29.77,North,356,0.0,2.0,95,0.00,,,0.00,Wunderground v.1.15,2013-09-22 04:02:00,
2013-09-22 00:04:00,76.8,74.9,29.77,NNW,341,1.0,2.0,94,0.00,,,0.00,Wunderground v.1.15,2013-09-22 04:04:00,
2013-09-22 00:06:00,76.8,75.3,29.77,NNW,345,1.0,2.0,95,0.00,,,0.00,Wunderground v.1.15,2013-09-22 04:06:00,
2013-09-22 00:12:00,76.8,75.3,29.77,NNW,346,1.0,1.0,95,0.00,,,0.00,Wunderground v.1.15,2013-09-22 04:12:00,
2013-09-22 00:14:00,76.8,75.3,29.77,NNW,345,1.0,1.0,95,0.00,,,0.00,Wunderground v.1.15,2013-09-22 04:14:00,
2013-09-22 00:18:00,76.7,74.8,29.77,NNW,333,0.0,1.0,94,0.00,,,0.00,Wunderground v.1.15,2013-09-22 04:18:00,
2013-09-22 00:24:00,76.7,75.2,29.77,NNE,20,0.0,1.0,95,0.00,,,0.00,Wunderground v.1.15,2013-09-22 04:24:00,
2013-09-22 00:30:00,76.7,75.2,29.77,NNE,20,0.0,1.0,95,0.00,,,0.00,Wunderground v.1.15,2013-09-22 04:30:00,
2013-09-22 00:36:00,76.7,74.8,29.77,NNE,27,0.0,1.0,94,0.00,,,0.00,Wunderground v.1.15,2013-09-22 04:36:00,
2013-09-22 00:42:00,76.9,75.0,29.77,NE,36,0.0,1.0,94,0.00,,,0.00,Wunderground v.1.15,2013-09-22 04:42:00,
2013-09-22 00:48:00,77.0,75.1,29.77,NE,36,0.0,1.0,94,0.00,,,0.00,Wunderground v.1.15,2013-09-22 04:48:00,
2013-09-22 00:54:00,76.9,75.4,29.77,NE,36,0.0,1.0,95,0.00,,,0.00,Wunderground v.1.15,2013-09-22 04:54:00,
2013-09-22 01:00:00,76.9,75.4,29.77,NE,36,0.0,1.0,95,0.00,,,0.00,Wunderground v.1.15,2013-09-22 05:00:00,
2013-09-22 01:06:00,77.0,75.5,29.77,NE,36,0.0,1.0,95,0.00,,,0.00,Wunderground v.1.15,2013-09-22 05:06:00,
2013-09-22 01:12:00,77.1,75.6,29.77,NE,36,0.0,1.0,95,0.00,,,0.00,Wunderground v.1.15,2013-09-22 05:12:00,
2013-09-22 01:18:00,77.1,75.6,29.76,NE,37,0.0,1.0,95,0.00,,,0.00,Wunderground v.1.15,2013-09-22 05:18:00,
2013-09-22 01:24:00,77.1,75.6,29.77,WSW,248,0.0,1.0,95,0.00,,,0.00,Wunderground v.1.15,2013-09-22 05:24:00,
2013-09-22 01:30:00,77.3,75.8,29.77,SSW,206,0.0,1.0,95,0.00,,,0.01,Wunderground v.1.15,2013-09-22 05:30:00,
2013-09-22 01:36:00,77.4,75.9,29.76,SSW,206,0.0,1.0,95,0.00,,,0.01,Wunderground v.1.15,2013-09-22 05:36:00,
2013-09-22 01:42:00,77.4,75.9,29.76,SSW,206,0.0,1.0,95,0.00,,,0.01,Wunderground v.1.15,2013-09-22 05:42:00,
2013-09-22 01:48:00,77.5,75.3,29.76,ESE,115,0.0,2.0,93,0.00,,,0.01,Wunderground v.1.15,2013-09-22 05:48:00,
2013-09-22 01:54:00,77.6,75.7,29.76,East,93,2.0,2.0,94,0.00,,,0.01,Wunderground v.1.15,2013-09-22 05:54:00,
2013-09-22 02:00:00,77.6,76.1,29.75,ENE,76,2.0,2.0,95,0.00,,,0.02,Wunderground v.1.15,2013-09-22 06:00:00,
2013-09-22 02:06:00,77.5,76.0,29.75,ENE,72,1.0,2.0,95,0.00,,,0.02,Wunderground v.1.15,2013-09-22 06:06:00,
2013-09-22 02:12:00,77.5,76.0,29.75,ENE,70,0.0,1.0,95,0.00,,,0.02,Wunderground v.1.15,2013-09-22 06:12:00,
2013-09-22 02:18:00,77.4,75.9,29.75,NE,56,1.0,1.0,95,0.00,,,0.02,Wunderground v.1.15,2013-09-22 06:18:00,
2013-09-22 02:24:00,77.4,75.9,29.75,ENE,62,1.0,1.0,95,0.00,,,0.02,Wunderground v.1.15,2013-09-22 06:24:00,
2013-09-22 02:30:00,77.4,75.9,29.74,East,80,0.0,1.0,95,0.00,,,0.02,Wunderground v.1.15,2013-09-22 06:30:00,
2013-09-22 02:36:00,77.3,75.8,29.74,ESE,102,0.0,1.0,95,0.00,,,0.02,Wunderground v.1.15,2013-09-22 06:36:00,
2013-09-22 02:42:00,77.2,75.7,29.74,ESE,117,1.0,1.0,95,0.00,,,0.02,Wunderground v.1.15,2013-09-22 06:42:00,
2013-09-22 02:48:00,77.1,75.6,29.73,NE,56,0.0,1.0,95,0.00,,,0.02,Wunderground v.1.15,2013-09-22 06:48:00,
2013-09-22 02:54:00,76.9,75.0,29.74,NE,56,0.0,1.0,94,0.00,,,0.02,Wunderground v.1.15,2013-09-22 06:54:00,
2013-09-22 03:00:00,76.8,74.9,29.74,NE,56,0.0,1.0,94,0.00,,,0.02,Wunderground v.1.15,2013-09-22 07:00:00,
2013-09-22 03:06:00,76.7,74.8,29.73,NE,56,0.0,1.0,94,0.00,,,0.02,Wunderground v.1.15,2013-09-22 07:06:00,
2013-09-22 03:12:00,76.6,75.1,29.74,NE,56,0.0,1.0,95,0.00,,,0.02,Wunderground v.1.15,2013-09-22 07:12:00,
2013-09-22 03:18:00,76.5,75.0,29.74,NE,56,0.0,1.0,95,0.00,,,0.02,Wunderground v.1.15,2013-09-22 07:18:00,
2013-09-22 03:24:00,76.3,74.8,29.74,NE,56,0.0,1.0,95,0.00,,,0.02,Wunderground v.1.15,2013-09-22 07:24:00,
2013-09-22 03:30:00,76.2,74.7,29.74,NE,56,0.0,1.0,95,0.00,,,0.02,Wunderground v.1.15,2013-09-22 07:30:00,
2013-09-22 03:36:00,76.2,75.0,29.74,NE,56,0.0,1.0,96,0.00,,,0.02,Wunderground v.1.15,2013-09-22 07:36:00,
2013-09-22 03:42:00,76.3,75.1,29.74,NE,56,0.0,1.0,96,0.00,,,0.02,Wunderground v.1.15,2013-09-22 07:42:00,
2013-09-22 03:48:00,76.3,75.1,29.73,NE,56,0.0,1.0,96,0.00,,,0.02,Wunderground v.1.15,2013-09-22 07:48:00,
2013-09-22 03:54:00,76.3,75.1,29.73,NE,56,0.0,1.0,96,0.00,,,0.02,Wunderground v.1.15,2013-09-22 07:54:00,
2013-09-22 04:00:00,76.2,75.0,29.73,NE,56,0.0,0.0,96,0.00,,,0.02,Wunderground v.1.15,2013-09-22 08:00:00,
2013-09-22 04:06:00,76.3,75.1,29.73,NE,56,0.0,0.0,96,0.00,,,0.02,Wunderground v.1.15,2013-09-22 08:06:00,
2013-09-22 04:12:00,76.2,75.0,29.73,NE,56,0.0,0.0,96,0.00,,,0.02,Wunderground v.1.15,2013-09-22 08:12:00,
2013-09-22 04:18:00,76.1,74.9,29.74,NE,56,0.0,0.0,96,0.00,,,0.02,Wunderground v.1.15,2013-09-22 08:18:00,
2013-09-22 04:24:00,76.0,74.8,29.73,NE,56,0.0,0.0,96,0.00,,,0.02,Wunderground v.1.15,2013-09-22 08:24:00,
2013-09-22 04:30:00,75.9,74.7,29.73,NE,56,0.0,0.0,96,0.00,,,0.02,Wunderground v.1.15,2013-09-22 08:30:00,
2013-09-22 04:36:00,75.8,74.9,29.73,NE,56,0.0,0.0,97,0.00,,,0.02,Wunderground v.1.15,2013-09-22 08:36:00,
2013-09-22 04:42:00,75.8,74.9,29.74,NE,56,0.0,0.0,97,0.00,,,0.02,Wunderground v.1.15,2013-09-22 08:42:00,
2013-09-22 04:48:00,75.8,74.9,29.73,NE,56,0.0,0.0,97,0.00,,,0.02,Wunderground v.1.15,2013-09-22 08:48:00,
2013-09-22 04:54:00,75.7,74.8,29.74,NE,56,0.0,0.0,97,0.00,,,0.02,Wunderground v.1.15,2013-09-22 08:54:00,
2013-09-22 05:00:00,75.7,74.8,29.73,NE,56,0.0,0.0,97,0.00,,,0.02,Wunderground v.1.15,2013-09-22 09:00:00,
2013-09-22 05:06:00,75.6,74.7,29.73,NE,56,0.0,0.0,97,0.00,,,0.02,Wunderground v.1.15,2013-09-22 09:06:00,
2013-09-22 05:12:00,75.8,74.9,29.73,NE,56,0.0,0.0,97,0.00,,,0.02,Wunderground v.1.15,2013-09-22 09:12:00,
2013-09-22 05:18:00,75.7,74.5,29.73,ENE,75,0.0,0.0,96,0.00,,,0.02,Wunderground v.1.15,2013-09-22 09:18:00,
2013-09-22 05:24:00,75.7,74.5,29.73,ENE,75,0.0,0.0,96,0.00,,,0.02,Wunderground v.1.15,2013-09-22 09:24:00,
2013-09-22 05:30:00,75.5,74.0,29.74,ENE,75,0.0,0.0,95,0.00,,,0.02,Wunderground v.1.15,2013-09-22 09:30:00,
2013-09-22 05:36:00,75.3,74.1,29.74,ENE,75,0.0,0.0,96,0.00,,,0.02,Wunderground v.1.15,2013-09-22 09:36:00,
2013-09-22 05:42:00,75.4,74.2,29.74,ENE,75,0.0,0.0,96,0.00,,,0.02,Wunderground v.1.15,2013-09-22 09:42:00,
2013-09-22 05:48:00,75.5,74.3,29.74,ENE,75,0.0,0.0,96,0.00,,,0.02,Wunderground v.1.15,2013-09-22 09:48:00,
2013-09-22 05:54:00,75.3,74.1,29.74,ENE,75,0.0,0.0,96,0.00,,,0.02,Wunderground v.1.15,2013-09-22 09:54:00,
2013-09-22 06:00:00,75.2,74.0,29.74,ENE,75,0.0,0.0,96,0.00,,,0.02,Wunderground v.1.15,2013-09-22 10:00:00,
2013-09-22 06:06:00,75.1,73.9,29.74,ENE,75,0.0,0.0,96,0.00,,,0.02,Wunderground v.1.15,2013-09-22 10:06:00,
2013-09-22 06:12:00,75.0,74.1,29.74,ENE,75,0.0,0.0,97,0.00,,,0.02,Wunderground v.1.15,2013-09-22 10:12:00,
2013-09-22 06:18:00,74.9,74.0,29.74,ENE,75,0.0,0.0,97,0.00,,,0.02,Wunderground v.1.15,2013-09-22 10:18:00,
2013-09-22 06:24:00,75.0,74.1,29.74,ENE,75,0.0,0.0,97,0.00,,,0.02,Wunderground v.1.15,2013-09-22 10:24:00,
2013-09-22 06:30:00,75.2,74.3,29.75,ENE,75,0.0,0.0,97,0.00,,,0.02,Wunderground v.1.15,2013-09-22 10:30:00,
2013-09-22 06:36:00,75.3,74.4,29.75,SSW,198,0.0,0.0,97,0.00,,,0.02,Wunderground v.1.15,2013-09-22 10:36:00,
2013-09-22 06:42:00,75.4,74.5,29.75,SSE,158,0.0,1.0,97,0.00,,,0.02,Wunderground v.1.15,2013-09-22 10:42:00,
2013-09-22 06:48:00,75.6,74.4,29.75,South,181,0.0,1.0,96,0.00,,,0.02,Wunderground v.1.15,2013-09-22 10:48:00,
2013-09-22 06:54:00,75.6,74.4,29.75,South,178,0.0,0.0,96,0.00,,,0.02,Wunderground v.1.15,2013-09-22 10:54:00,
2013-09-22 07:00:00,75.7,74.5,29.75,South,178,0.0,0.0,96,0.00,,,0.02,Wunderground v.1.15,2013-09-22 11:00:00,
2013-09-22 07:06:00,75.7,74.5,29.75,South,178,0.0,0.0,96,0.00,,,0.02,Wunderground v.1.15,2013-09-22 11:06:00,
2013-09-22 07:12:00,75.7,74.5,29.76,South,181,0.0,0.0,96,0.00,,,0.02,Wunderground v.1.15,2013-09-22 11:12:00,
2013-09-22 07:18:00,75.7,74.5,29.76,South,181,0.0,0.0,96,0.00,,,0.02,Wunderground v.1.15,2013-09-22 11:18:00,
2013-09-22 07:24:00,75.7,74.5,29.76,SSW,205,0.0,0.0,96,0.00,,,0.02,Wunderground v.1.15,2013-09-22 11:24:00,
2013-09-22 07:30:00,75.9,74.7,29.76,SSW,205,0.0,0.0,96,0.00,,,0.02,Wunderground v.1.15,2013-09-22 11:30:00,
2013-09-22 07:36:00,76.1,74.9,29.76,SSW,205,0.0,0.0,96,0.00,,,0.02,Wunderground v.1.15,2013-09-22 11:36:00,
2013-09-22 07:42:00,76.4,75.2,29.76,ESE,122,0.0,0.0,96,0.00,,,0.02,Wunderground v.1.15,2013-09-22 11:42:00,
2013-09-22 07:48:00,76.9,75.4,29.76,SSE,156,0.0,0.0,95,0.00,,,0.02,Wunderground v.1.15,2013-09-22 11:48:00,
2013-09-22 07:54:00,77.5,75.6,29.76,SE,140,0.0,0.0,94,0.00,,,0.02,Wunderground v.1.15,2013-09-22 11:54:00,
2013-09-22 08:00:00,77.7,75.8,29.76,SSE,156,0.0,0.0,94,0.00,,,0.02,Wunderground v.1.15,2013-09-22 12:00:00,
2013-09-22 08:06:00,77.9,75.7,29.76,SE,146,0.0,0.0,93,0.00,,,0.02,Wunderground v.1.15,2013-09-22 12:06:00,
2013-09-22 08:12:00,78.2,76.0,29.76,SSE,148,0.0,1.0,93,0.00,,,0.02,Wunderground v.1.15,2013-09-22 12:12:00,
2013-09-22 08:18:00,79.1,76.6,29.76,SE,131,0.0,1.0,92,0.00,,,0.02,Wunderground v.1.15,2013-09-22 12:18:00,
2013-09-22 08:24:00,79.3,76.4,29.76,SSE,147,0.0,1.0,91,0.00,,,0.02,Wunderground v.1.15,2013-09-22 12:24:00,
2013-09-22 08:30:00,79.3,76.1,29.77,SE,143,1.0,1.0,90,0.00,,,0.02,Wunderground v.1.15,2013-09-22 12:30:00,
2013-09-22 08:36:00,79.5,76.6,29.77,SE,140,1.0,1.0,91,0.00,,,0.02,Wunderground v.1.15,2013-09-22 12:36:00,
2013-09-22 08:42:00,80.0,76.8,29.77,SE,146,1.0,1.0,90,0.00,,,0.02,Wunderground v.1.15,2013-09-22 12:42:00,
2013-09-22 08:48:00,81.0,77.1,29.77,ESE,120,1.0,2.0,88,0.00,,,0.02,Wunderground v.1.15,2013-09-22 12:48:00,
2013-09-22 08:54:00,81.4,77.2,29.78,SE,134,1.0,1.0,87,0.00,,,0.02,Wunderground v.1.15,2013-09-22 12:54:00,
2013-09-22 09:00:00,81.7,76.7,29.78,South,169,1.0,3.0,85,0.00,,,0.02,Wunderground v.1.15,2013-09-22 13:00:00,
2013-09-22 09:06:00,81.8,76.8,29.78,SE,141,2.0,4.0,85,0.00,,,0.02,Wunderground v.1.15,2013-09-22 13:06:00,
2013-09-22 09:12:00,82.3,76.6,29.78,SE,136,2.0,3.0,83,0.00,,,0.02,Wunderground v.1.15,2013-09-22 13:12:00,
2013-09-22 09:18:00,82.7,76.6,29.78,SSE,167,2.0,3.0,82,0.00,,,0.02,Wunderground v.1.15,2013-09-22 13:18:00,
2013-09-22 09:24:00,83.6,77.5,29.78,SE,141,2.0,2.0,82,0.00,,,0.02,Wunderground v.1.15,2013-09-22 13:24:00,
2013-09-22 09:30:00,83.9,77.1,29.78,SE,126,2.0,2.0,80,0.00,,,0.02,Wunderground v.1.15,2013-09-22 13:30:00,
2013-09-22 09:36:00,84.0,76.8,29.78,SW,225,3.0,3.0,79,0.00,,,0.02,Wunderground v.1.15,2013-09-22 13:36:00,
2013-09-22 09:42:00,84.2,77.0,29.78,South,187,3.0,4.0,79,0.00,,,0.02,Wunderground v.1.15,2013-09-22 13:42:00,
2013-09-22 09:48:00,84.6,77.0,29.78,SSW,205,3.0,4.0,78,0.00,,,0.02,Wunderground v.1.15,2013-09-22 13:48:00,
2013-09-22 09:54:00,84.7,77.1,29.79,South,188,3.0,7.0,78,0.00,,,0.02,Wunderground v.1.15,2013-09-22 13:54:00,
2013-09-22 10:00:00,84.3,77.1,29.79,SE,146,4.0,4.0,79,0.00,,,0.02,Wunderground v.1.15,2013-09-22 14:00:00,
2013-09-22 10:06:00,84.8,77.2,29.79,SW,217,3.0,4.0,78,0.00,,,0.02,Wunderground v.1.15,2013-09-22 14:06:00,
2013-09-22 10:12:00,85.0,77.0,29.79,SSW,195,2.0,3.0,77,0.00,,,0.02,Wunderground v.1.15,2013-09-22 14:12:00,
2013-09-22 10:18:00,84.9,76.9,29.79,SSE,165,3.0,4.0,77,0.00,,,0.02,Wunderground v.1.15,2013-09-22 14:18:00,
2013-09-22 10:24:00,84.7,76.7,29.79,WSW,243,3.0,4.0,77,0.00,,,0.02,Wunderground v.1.15,2013-09-22 14:24:00,
2013-09-22 10:30:00,85.0,76.6,29.79,South,177,3.0,4.0,76,0.00,,,0.02,Wunderground v.1.15,2013-09-22 14:30:00,
2013-09-22 10:36:00,85.9,77.1,29.78,SSW,198,3.0,4.0,75,0.00,,,0.02,Wunderground v.1.15,2013-09-22 14:36:00,
2013-09-22 10:42:00,85.5,76.3,29.79,South,181,3.0,3.0,74,0.00,,,0.02,Wunderground v.1.15,2013-09-22 14:42:00,
2013-09-22 10:48:00,85.9,76.6,29.79,SE,143,2.0,3.0,74,0.00,,,0.02,Wunderground v.1.15,2013-09-22 14:48:00,
2013-09-22 10:54:00,86.9,76.4,29.79,SE,131,3.0,5.0,71,0.00,,,0.02,Wunderground v.1.15,2013-09-22 14:54:00,
2013-09-22 11:00:00,87.7,76.3,29.79,WSW,245,4.0,4.0,69,0.00,,,0.02,Wunderground v.1.15,2013-09-22 15:00:00,
2013-09-22 11:06:00,88.6,76.7,29.78,SSW,208,3.0,5.0,68,0.00,,,0.02,Wunderground v.1.15,2013-09-22 15:06:00,
2013-09-22 11:12:00,89.2,76.4,29.78,South,172,3.0,5.0,66,0.00,,,0.02,Wunderground v.1.15,2013-09-22 15:12:00,
2013-09-22 11:18:00,89.3,76.4,29.78,SE,139,4.0,5.0,66,0.00,,,0.02,Wunderground v.1.15,2013-09-22 15:18:00,
2013-09-22 11:24:00,88.3,75.5,29.78,ESE,119,4.0,5.0,66,0.00,,,0.02,Wunderground v.1.15,2013-09-22 15:24:00,
2013-09-22 11:30:00,88.4,75.1,29.78,WSW,253,4.0,4.0,65,0.00,,,0.02,Wunderground v.1.15,2013-09-22 15:30:00,
2013-09-22 11:36:00,88.4,75.1,29.78,SSE,157,4.0,6.0,65,0.00,,,0.02,Wunderground v.1.15,2013-09-22 15:36:00,
2013-09-22 11:42:00,88.2,74.9,29.78,SSW,200,3.0,3.0,65,0.00,,,0.02,Wunderground v.1.15,2013-09-22 15:42:00,
2013-09-22 11:48:00,88.3,75.9,29.78,SSW,201,2.0,4.0,67,0.00,,,0.02,Wunderground v.1.15,2013-09-22 15:48:00,
2013-09-22 11:54:00,88.4,76.0,29.78,SSW,202,2.0,5.0,67,0.00,,,0.02,Wunderground v.1.15,2013-09-22 15:54:00,
2013-09-22 12:02:00,87.4,75.5,29.78,NW,321,3.0,3.0,68,0.00,,,0.02,Wunderground v.1.15,2013-09-22 16:02:00,
2013-09-22 12:08:00,88.9,76.1,29.78,SSE,150,2.0,4.0,66,0.00,,,0.02,Wunderground v.1.15,2013-09-22 16:08:00,
2013-09-22 12:14:00,89.8,74.6,29.78,South,173,3.0,6.0,61,0.00,,,0.02,Wunderground v.1.15,2013-09-22 16:14:00,
2013-09-22 12:20:00,90.2,74.4,29.77,WSW,238,3.0,3.0,60,0.00,,,0.02,Wunderground v.1.15,2013-09-22 16:20:00,
2013-09-22 12:26:00,89.4,74.7,29.77,South,169,3.0,4.0,62,0.00,,,0.02,Wunderground v.1.15,2013-09-22 16:26:00,
2013-09-22 12:32:00,89.7,74.5,29.77,SE,139,3.0,3.0,61,0.00,,,0.02,Wunderground v.1.15,2013-09-22 16:32:00,
2013-09-22 12:38:00,90.6,74.8,29.77,South,179,3.0,4.0,60,0.00,,,0.02,Wunderground v.1.15,2013-09-22 16:38:00,
2013-09-22 12:44:00,91.2,75.4,29.77,SSW,192,2.0,3.0,60,0.00,,,0.02,Wunderground v.1.15,2013-09-22 16:44:00,
2013-09-22 12:50:00,92.0,74.1,29.77,SW,228,3.0,3.0,56,0.00,,,0.02,Wunderground v.1.15,2013-09-22 16:50:00,
2013-09-22 12:56:00,91.4,74.0,29.77,SSW,209,3.0,3.0,57,0.00,,,0.02,Wunderground v.1.15,2013-09-22 16:56:00,
2013-09-22 13:02:00,91.7,73.8,29.76,NW,307,4.0,7.0,56,0.00,,,0.02,Wunderground v.1.15,2013-09-22 17:02:00,
2013-09-22 13:08:00,92.4,73.3,29.76,SW,235,3.0,7.0,54,0.00,,,0.02,Wunderground v.1.15,2013-09-22 17:08:00,
2013-09-22 13:14:00,91.8,72.8,29.76,WSW,255,3.0,5.0,54,0.00,,,0.02,Wunderground v.1.15,2013-09-22 17:14:00,
2013-09-22 13:20:00,92.2,74.2,29.76,WSW,240,3.0,3.0,56,0.00,,,0.02,Wunderground v.1.15,2013-09-22 17:20:00,
2013-09-22 13:26:00,92.4,75.0,29.75,West,266,3.0,5.0,57,0.00,,,0.02,Wunderground v.1.15,2013-09-22 17:26:00,
2013-09-22 13:32:00,92.2,74.2,29.75,WSW,245,3.0,4.0,56,0.00,,,0.02,Wunderground v.1.15,2013-09-22 17:32:00,
2013-09-22 13:38:00,92.6,75.1,29.75,SSW,213,3.0,4.0,57,0.00,,,0.02,Wunderground v.1.15,2013-09-22 17:38:00,
2013-09-22 13:44:00,92.4,74.4,29.75,SSW,203,3.0,4.0,56,0.00,,,0.02,Wunderground v.1.15,2013-09-22 17:44:00,
2013-09-22 13:50:00,92.5,75.0,29.75,SW,224,3.0,3.0,57,0.00,,,0.02,Wunderground v.1.15,2013-09-22 17:50:00,
2013-09-22 13:56:00,92.3,74.3,29.75,SW,231,3.0,5.0,56,0.00,,,0.02,Wunderground v.1.15,2013-09-22 17:56:00,
2013-09-22 14:02:00,92.7,74.2,29.75,SW,217,3.0,3.0,55,0.00,,,0.02,Wunderground v.1.15,2013-09-22 18:02:00,
2013-09-22 14:08:00,93.3,74.7,29.75,SW,224,2.0,3.0,55,0.00,,,0.02,Wunderground v.1.15,2013-09-22 18:08:00,
2013-09-22 14:14:00,93.4,75.4,29.75,SE,146,2.0,5.0,56,0.00,,,0.02,Wunderground v.1.15,2013-09-22 18:14:00,
2013-09-22 14:20:00,93.6,73.3,29.75,WSW,237,3.0,3.0,52,0.00,,,0.02,Wunderground v.1.15,2013-09-22 18:20:00,
2013-09-22 14:26:00,93.6,72.7,29.75,South,175,3.0,4.0,51,0.00,,,0.02,Wunderground v.1.15,2013-09-22 18:26:00,
2013-09-22 14:32:00,93.4,72.0,29.74,SW,229,3.0,3.0,50,0.00,,,0.02,Wunderground v.1.15,2013-09-22 18:32:00,
2013-09-22 14:38:00,92.5,71.7,29.74,WSW,258,4.0,9.0,51,0.00,,,0.02,Wunderground v.1.15,2013-09-22 18:38:00,
2013-09-22 14:44:00,92.5,71.2,29.74,WSW,247,4.0,4.0,50,0.00,,,0.02,Wunderground v.1.15,2013-09-22 18:44:00,
2013-09-22 14:50:00,92.5,71.2,29.74,SW,226,3.0,3.0,50,0.00,,,0.02,Wunderground v.1.15,2013-09-22 18:50:00,
2013-09-22 14:56:00,92.3,67.9,29.74,SSW,195,4.0,6.0,45,0.00,,,0.02,Wunderground v.1.15,2013-09-22 18:56:00,
2013-09-22 15:02:00,92.4,69.2,29.74,SW,225,4.0,4.0,47,0.00,,,0.02,Wunderground v.1.15,2013-09-22 19:02:00,
2013-09-22 15:08:00,92.6,69.4,29.73,SW,229,3.0,4.0,47,0.00,,,0.02,Wunderground v.1.15,2013-09-22 19:08:00,
2013-09-22 15:14:00,91.8,70.5,29.73,SSW,212,3.0,7.0,50,0.00,,,0.02,Wunderground v.1.15,2013-09-22 19:14:00,
2013-09-22 15:22:00,91.4,71.3,29.73,NNW,329,4.0,4.0,52,0.00,,,0.02,Wunderground v.1.15,2013-09-22 19:22:00,
2013-09-22 15:28:00,91.6,72.6,29.73,SSW,201,3.0,4.0,54,0.00,,,0.02,Wunderground v.1.15,2013-09-22 19:28:00,
2013-09-22 15:34:00,92.0,71.9,29.72,SW,225,3.0,5.0,52,0.00,,,0.02,Wunderground v.1.15,2013-09-22 19:34:00,
2013-09-22 15:40:00,91.0,72.0,29.72,West,276,3.0,3.0,54,0.00,,,0.02,Wunderground v.1.15,2013-09-22 19:40:00,
2013-09-22 15:46:00,90.0,72.2,29.72,WSW,246,3.0,6.0,56,0.00,,,0.02,Wunderground v.1.15,2013-09-22 19:46:00,
2013-09-22 15:52:00,89.9,72.1,29.72,NW,307,3.0,4.0,56,0.00,,,0.02,Wunderground v.1.15,2013-09-22 19:52:00,
2013-09-22 15:58:00,90.8,71.9,29.72,West,269,3.0,8.0,54,0.00,,,0.02,Wunderground v.1.15,2013-09-22 19:58:00,
2013-09-22 16:04:00,91.0,72.0,29.72,SW,231,4.0,7.0,54,0.00,,,0.02,Wunderground v.1.15,2013-09-22 20:04:00,
2013-09-22 16:10:00,92.0,71.9,29.72,West,271,3.0,5.0,52,0.00,,,0.02,Wunderground v.1.15,2013-09-22 20:10:00,
2013-09-22 16:16:00,92.2,72.0,29.72,WSW,256,3.0,5.0,52,0.00,,,0.02,Wunderground v.1.15,2013-09-22 20:16:00,
2013-09-22 16:22:00,92.6,72.4,29.71,WNW,288,3.0,3.0,52,0.00,,,0.02,Wunderground v.1.15,2013-09-22 20:22:00,
2013-09-22 16:28:00,92.8,71.4,29.71,SSW,196,3.0,3.0,50,0.00,,,0.02,Wunderground v.1.15,2013-09-22 20:28:00,
2013-09-22 16:34:00,93.5,70.9,29.71,SW,229,2.0,5.0,48,0.00,,,0.02,Wunderground v.1.15,2013-09-22 20:34:00,
2013-09-22 16:40:00,93.3,70.7,29.71,SSW,195,3.0,3.0,48,0.00,,,0.02,Wunderground v.1.15,2013-09-22 20:40:00,
2013-09-22 16:46:00,93.4,70.2,29.71,WSW,237,3.0,4.0,47,0.00,,,0.02,Wunderground v.1.15,2013-09-22 20:46:00,
2013-09-22 16:52:00,93.2,69.3,29.71,SSW,211,3.0,3.0,46,0.00,,,0.02,Wunderground v.1.15,2013-09-22 20:52:00,
2013-09-22 16:58:00,93.1,70.5,29.71,West,260,3.0,4.0,48,0.00,,,0.02,Wunderground v.1.15,2013-09-22 20:58:00,
2013-09-22 17:04:00,92.1,70.8,29.71,WSW,238,4.0,9.0,50,0.00,,,0.02,Wunderground v.1.15,2013-09-22 21:04:00,
2013-09-22 17:10:00,91.9,71.2,29.71,SW,215,4.0,4.0,51,0.00,,,0.02,Wunderground v.1.15,2013-09-22 21:10:00,
2013-09-22 17:16:00,92.2,71.5,29.71,SSE,162,3.0,4.0,51,0.00,,,0.02,Wunderground v.1.15,2013-09-22 21:16:00,
2013-09-22 17:22:00,92.1,71.4,29.71,WNW,292,3.0,7.0,51,0.00,,,0.02,Wunderground v.1.15,2013-09-22 21:22:00,
2013-09-22 17:28:00,91.9,70.6,29.72,SW,222,4.0,7.0,50,0.00,,,0.02,Wunderground v.1.15,2013-09-22 21:28:00,
2013-09-22 17:34:00,92.2,70.9,29.72,South,184,3.0,4.0,50,0.00,,,0.02,Wunderground v.1.15,2013-09-22 21:34:00,
2013-09-22 17:40:00,91.4,70.7,29.72,West,264,3.0,4.0,51,0.00,,,0.02,Wunderground v.1.15,2013-09-22 21:40:00,
2013-09-22 17:46:00,91.0,70.9,29.72,West,274,3.0,6.0,52,0.00,,,0.02,Wunderground v.1.15,2013-09-22 21:46:00,
2013-09-22 17:52:00,91.1,71.0,29.73,SW,224,3.0,4.0,52,0.00,,,0.02,Wunderground v.1.15,2013-09-22 21:52:00,
2013-09-22 17:58:00,90.8,71.9,29.73,SW,230,2.0,5.0,54,0.00,,,0.02,Wunderground v.1.15,2013-09-22 21:58:00,
2013-09-22 18:04:00,90.2,71.8,29.73,WNW,288,2.0,4.0,55,0.00,,,0.02,Wunderground v.1.15,2013-09-22 22:04:00,
2013-09-22 18:10:00,89.4,71.6,29.73,WNW,282,3.0,5.0,56,0.00,,,0.02,Wunderground v.1.15,2013-09-22 22:10:00,
2013-09-22 18:16:00,89.1,71.9,29.73,West,277,2.0,6.0,57,0.00,,,0.02,Wunderground v.1.15,2013-09-22 22:16:00,
2013-09-22 18:22:00,88.8,72.1,29.73,SSW,212,2.0,2.0,58,0.00,,,0.02,Wunderground v.1.15,2013-09-22 22:22:00,
2013-09-22 18:28:00,89.1,72.4,29.73,WNW,289,1.0,3.0,58,0.00,,,0.02,Wunderground v.1.15,2013-09-22 22:28:00,
2013-09-22 18:34:00,89.3,72.6,29.73,SW,228,1.0,1.0,58,0.00,,,0.02,Wunderground v.1.15,2013-09-22 22:34:00,
2013-09-22 18:40:00,89.3,72.6,29.74,SW,226,1.0,4.0,58,0.00,,,0.02,Wunderground v.1.15,2013-09-22 22:40:00,
2013-09-22 18:46:00,88.9,72.7,29.74,SSW,194,2.0,4.0,59,0.00,,,0.02,Wunderground v.1.15,2013-09-22 22:46:00,
2013-09-22 18:52:00,88.9,72.7,29.74,South,180,1.0,2.0,59,0.00,,,0.02,Wunderground v.1.15,2013-09-22 22:52:00,
2013-09-22 18:58:00,88.7,73.0,29.75,WSW,250,1.0,2.0,60,0.00,,,0.02,Wunderground v.1.15,2013-09-22 22:58:00,
2013-09-22 19:04:00,88.1,73.0,29.75,SW,234,1.0,4.0,61,0.00,,,0.02,Wunderground v.1.15,2013-09-22 23:04:00,
2013-09-22 19:10:00,87.7,73.1,29.75,WSW,245,1.0,1.0,62,0.00,,,0.02,Wunderground v.1.15,2013-09-22 23:10:00,
2013-09-22 19:16:00,87.4,73.3,29.75,SSE,162,1.0,1.0,63,0.00,,,0.02,Wunderground v.1.15,2013-09-22 23:16:00,
2013-09-22 19:22:00,87.2,73.5,29.75,SSW,213,1.0,1.0,64,0.00,,,0.02,Wunderground v.1.15,2013-09-22 23:22:00,
2013-09-22 19:28:00,86.9,73.7,29.76,SSW,207,0.0,2.0,65,0.00,,,0.02,Wunderground v.1.15,2013-09-22 23:28:00,
2013-09-22 19:34:00,86.7,74.0,29.76,WSW,253,0.0,1.0,66,0.00,,,0.02,Wunderground v.1.15,2013-09-22 23:34:00,
2013-09-22 19:40:00,86.5,73.8,29.76,SSW,202,0.0,0.0,66,0.00,,,0.02,Wunderground v.1.15,2013-09-22 23:40:00,
2013-09-22 19:46:00,86.3,74.0,29.76,SSW,198,0.0,0.0,67,0.00,,,0.02,Wunderground v.1.15,2013-09-22 23:46:00,
2013-09-22 19:52:00,86.0,74.2,29.76,SSE,158,0.0,1.0,68,0.00,,,0.02,Wunderground v.1.15,2013-09-22 23:52:00,
2013-09-22 19:58:00,85.8,74.0,29.76,SSW,203,0.0,1.0,68,0.00,,,0.02,Wunderground v.1.15,2013-09-22 23:58:00,
2013-09-22 20:04:00,85.7,74.4,29.76,South,181,0.0,1.0,69,0.00,,,0.02,Wunderground v.1.15,2013-09-23 00:04:00,
2013-09-22 20:10:00,85.4,74.5,29.76,SSW,198,0.0,0.0,70,0.00,,,0.02,Wunderground v.1.15,2013-09-23 00:10:00,
2013-09-22 20:16:00,85.2,74.3,29.76,SSW,199,0.0,0.0,70,0.00,,,0.02,Wunderground v.1.15,2013-09-23 00:16:00,
2013-09-22 20:22:00,85.1,74.6,29.77,SSE,166,0.0,1.0,71,0.00,,,0.02,Wunderground v.1.15,2013-09-23 00:22:00,
2013-09-22 20:28:00,85.0,75.0,29.77,South,182,1.0,1.0,72,0.00,,,0.02,Wunderground v.1.15,2013-09-23 00:28:00,
2013-09-22 20:34:00,84.8,75.2,29.77,SSE,161,0.0,1.0,73,0.00,,,0.02,Wunderground v.1.15,2013-09-23 00:34:00,
2013-09-22 20:40:00,84.7,75.1,29.77,SW,233,0.0,0.0,73,0.00,,,0.02,Wunderground v.1.15,2013-09-23 00:40:00,
2013-09-22 20:45:00,84.6,75.0,29.77,SSW,200,0.0,1.0,73,0.00,,,0.02,Wunderground v.1.15,2013-09-23 00:45:00,
2013-09-22 20:52:00,84.5,75.3,29.78,SSW,200,1.0,2.0,74,0.00,,,0.02,Wunderground v.1.15,2013-09-23 00:52:00,
2013-09-22 20:58:00,84.3,75.1,29.78,SW,214,1.0,2.0,74,0.00,,,0.02,Wunderground v.1.15,2013-09-23 00:58:00,
2013-09-22 21:04:00,84.2,75.4,29.78,WSW,237,1.0,1.0,75,0.00,,,0.02,Wunderground v.1.15,2013-09-23 01:04:00,
2013-09-22 21:10:00,84.1,75.3,29.78,South,176,1.0,1.0,75,0.00,,,0.02,Wunderground v.1.15,2013-09-23 01:10:00,
2013-09-22 21:15:00,83.9,75.5,29.78,WSW,258,1.0,2.0,76,0.00,,,0.02,Wunderground v.1.15,2013-09-23 01:15:00,
2013-09-22 21:22:00,83.9,75.9,29.79,WSW,250,1.0,1.0,77,0.00,,,0.02,Wunderground v.1.15,2013-09-23 01:22:00,
2013-09-22 21:28:00,83.9,75.9,29.79,SW,229,1.0,1.0,77,0.00,,,0.02,Wunderground v.1.15,2013-09-23 01:28:00,
2013-09-22 21:34:00,83.9,75.9,29.79,SW,228,1.0,1.0,77,0.00,,,0.02,Wunderground v.1.15,2013-09-23 01:34:00,
2013-09-22 21:40:00,83.7,76.1,29.80,SSW,203,1.0,1.0,78,0.00,,,0.02,Wunderground v.1.15,2013-09-23 01:40:00,
2013-09-22 21:46:00,83.6,76.0,29.80,SSW,205,0.0,1.0,78,0.00,,,0.02,Wunderground v.1.15,2013-09-23 01:46:00,
2013-09-22 21:52:00,83.5,76.3,29.80,SW,223,0.0,1.0,79,0.00,,,0.02,Wunderground v.1.15,2013-09-23 01:52:00,
2013-09-22 21:58:00,83.4,76.6,29.80,WSW,242,0.0,1.0,80,0.00,,,0.02,Wunderground v.1.15,2013-09-23 01:58:00,
2013-09-22 22:06:00,83.3,76.5,29.81,WSW,252,1.0,2.0,80,0.00,,,0.02,Wunderground v.1.15,2013-09-23 02:06:00,
2013-09-22 22:12:00,83.2,76.4,29.81,WSW,242,1.0,3.0,80,0.00,,,0.02,Wunderground v.1.15,2013-09-23 02:12:00,
2013-09-22 22:18:00,83.1,76.3,29.81,WSW,238,1.0,3.0,80,0.00,,,0.02,Wunderground v.1.15,2013-09-23 02:18:00,
2013-09-22 22:24:00,83.0,76.6,29.81,WSW,254,0.0,1.0,81,0.00,,,0.02,Wunderground v.1.15,2013-09-23 02:24:00,
2013-09-22 22:30:00,82.8,76.4,29.81,SSW,210,0.0,0.0,81,0.00,,,0.02,Wunderground v.1.15,2013-09-23 02:30:00,
2013-09-22 22:36:00,82.8,76.4,29.81,WSW,238,1.0,1.0,81,0.00,,,0.02,Wunderground v.1.15,2013-09-23 02:36:00,
2013-09-22 22:42:00,82.7,76.3,29.81,WSW,253,0.0,1.0,81,0.00,,,0.02,Wunderground v.1.15,2013-09-23 02:42:00,
2013-09-22 22:48:00,82.6,76.2,29.81,WSW,255,1.0,3.0,81,0.00,,,0.02,Wunderground v.1.15,2013-09-23 02:48:00,
2013-09-22 22:54:00,82.5,76.1,29.81,WSW,255,1.0,3.0,81,0.00,,,0.02,Wunderground v.1.15,2013-09-23 02:54:00,
2013-09-22 23:00:00,82.4,76.0,29.81,SW,234,1.0,1.0,81,0.00,,,0.02,Wunderground v.1.15,2013-09-23 03:00:00,
2013-09-22 23:06:00,82.2,76.2,29.81,WSW,252,1.0,1.0,82,0.00,,,0.02,Wunderground v.1.15,2013-09-23 03:06:00,
2013-09-22 23:12:00,82.1,76.1,29.81,SW,221,1.0,1.0,82,0.00,,,0.02,Wunderground v.1.15,2013-09-23 03:12:00,
2013-09-22 23:18:00,82.1,76.4,29.81,SSW,195,1.0,1.0,83,0.00,,,0.02,Wunderground v.1.15,2013-09-23 03:18:00,
2013-09-22 23:24:00,81.9,76.2,29.81,SSW,207,0.0,0.0,83,0.00,,,0.02,Wunderground v.1.15,2013-09-23 03:24:00,
2013-09-22 23:30:00,81.8,76.1,29.81,WSW,245,0.0,0.0,83,0.00,,,0.02,Wunderground v.1.15,2013-09-23 03:30:00,
2013-09-22 23:36:00,81.8,76.1,29.81,SW,235,0.0,0.0,83,0.00,,,0.02,Wunderground v.1.15,2013-09-23 03:36:00,
2013-09-22 23:42:00,81.7,76.4,29.82,WSW,243,0.0,0.0,84,0.00,,,0.02,Wunderground v.1.15,2013-09-23 03:42:00,
2013-09-22 23:48:00,81.6,76.3,29.82,ESE,123,1.0,1.0,84,0.00,,,0.02,Wunderground v.1.15,2013-09-23 03:48:00,
2013-09-22 23:54:00,81.5,76.2,29.82,SSE,156,1.0,1.0,84,0.00,,,0.02,Wunderground v.1.15,2013-09-23 03:54:00,